Location: Écuvilly
(49.6505°N, 2.9206°E)
Time: 06:49:27
(UTC+00:00)

Cosmos 1536 Rocket - Pass Details

Date: 17 November 2025
Orbit: 599 x 625 km, 82.5° (Epoch: 10 December)

Event Time Altitude Azimuth Distance (km) Brightness Sun altitude
Rises 18:27:43 0° 345° (NNW) 2,920 7.2 -23.2°
Reaches altitude 10° 18:30:00 10° 341° (NNW) 2,005 6.4 -23.6°
Maximum altitude 18:34:18 51° 266° (W) 788 4.4 -24.3°
Drops below altitude 10° 18:38:32 10° 191° (S) 1,976 6.3 -25.0°
Sets 18:40:47 0° 186° (S) 2,872 7.1 -25.3°
